Simultaneous Nadir Overpasses (SNOs) Predictions

Prediction of SNOs between GOES-17 and LANDSAT-8 Satellite Orbit:

Table of predicted SNOs for the next 14.0 days since TLE Epoch: 12/19/2020
Index Date Time (GOES-17) GOES-17 Lat,Lon LANDSAT-8 Lat,Lon Distance(km) Time Diff (sec)
1 12/20/2020 19:14:03 -0.02,-137.22 -0.32,-135.73 169.54 80
2 12/21/2020 07:38:07 0.01,-137.22 -0.79,-140.92 420.63 80
3 12/23/2020 07:25:56 0.01,-137.21 -0.12,-137.97 85.34 80
4 12/25/2020 07:11:04 0.02,-137.20 0.50,-135.01 249.46 80
5 12/25/2020 19:34:59 -0.01,-137.19 0.63,-140.16 337.64 80
6 12/27/2020 19:22:47 -0.02,-137.17 0.01,-137.20 4.20 80
7 12/29/2020 19:10:35 -0.01,-137.14 -0.62,-134.24 329.33 80
8 12/30/2020 07:29:19 0.01,-137.13 -0.49,-139.43 261.56 80
9 01/01/2021 07:19:47 0.00,-137.09 0.14,-136.47 70.66 80
